| time (UTC) | temp F | wind direction | speed MPH | gust MPH | rain 1hr in | rain 24hr in | rain mn in | humidity % | barometer mb |
| 20260904213645 | 80 | 180 | 1.0 | 3.0 | 0.00 | 0.00 | 0.00 | 74 | 1018.2 |
| 20260904213145 | 80 | 136 | 3.0 | 4.0 | 0.00 | 0.00 | 0.00 | 74 | 1018.3 |
| 20260904212642 | 80 | 149 | 2.0 | 3.0 | 0.00 | 0.00 | 0.00 | 75 | 1018.2 |
| 20260904212142 | 80 | 112 | 0.0 | 0.0 | 0.00 | 0.00 | 0.00 | 76 | 1018.3 |
| 20260904211642 | 80 | 148 | 0.0 | 1.0 | 0.00 | 0.00 | 0.00 | 77 | 1018.4 |
| 20260904211145 | 80 | 148 | 0.0 | 2.0 | 0.00 | 0.00 | 0.00 | 77 | 1018.4 |
| 20260904210645 | 80 | 155 | 0.0 | 4.0 | 0.00 | 0.00 | 0.00 | 77 | 1018.5 |
| 20260904210142 | 80 | 178 | 1.0 | 4.0 | 0.00 | 0.00 | 0.00 | 77 | 1018.5 |
| 20260904205642 | 80 | 183 | 5.0 | 5.0 | 0.00 | 0.00 | 0.00 | 77 | 1018.5 |
| 20260904205148 | 80 | 175 | 3.0 | 4.0 | 0.00 | 0.00 | 0.00 | 77 | 1018.5 |
| 20260904204642 | 80 | 196 | 2.0 | 6.0 | 0.00 | 0.00 | 0.00 | 76 | 1018.4 |
| 20260904204143 | 80 | 106 | 5.0 | 7.0 | 0.00 | 0.00 | 0.00 | 77 | 1018.4 |
| 20260904203645 | 80 | 175 | 3.0 | 6.0 | 0.00 | 0.00 | 0.00 | 77 | 1018.5 |
| 20260904203142 | 80 | 153 | 3.0 | 8.0 | 0.00 | 0.00 | 0.00 | 76 | 1018.5 |
| 20260904202648 | 80 | 156 | 5.0 | 8.0 | 0.00 | 0.00 | 0.00 | 76 | 1018.5 |
| 20260904202148 | 80 | 141 | 2.0 | 6.0 | 0.00 | 0.00 | 0.00 | 75 | 1018.6 |
| 20260904201642 | 81 | 148 | 3.0 | 7.0 | 0.00 | 0.00 | 0.00 | 75 | 1018.6 |
| 20260904201142 | 81 | 169 | 0.0 | 6.0 | 0.00 | 0.00 | 0.00 | 75 | 1018.6 |
| 20260904200646 | 81 | 159 | 0.0 | 5.0 | 0.00 | 0.00 | 0.00 | 75 | 1018.6 |
| 20260904200145 | 81 | 155 | 0.0 | 4.0 | 0.00 | 0.00 | 0.00 | 75 | 1018.7 |
| 20260904195651 | 81 | 133 | 1.0 | 7.0 | 0.00 | 0.00 | 0.00 | 75 | 1018.7 |
| 20260904195142 | 81 | 163 | 3.0 | 7.0 | 0.00 | 0.00 | 0.00 | 75 | 1018.7 |
| 20260904194642 | 81 | 185 | 2.0 | 4.0 | 0.00 | 0.00 | 0.00 | 75 | 1018.7 |
| 20260904194148 | 81 | 152 | 4.0 | 6.0 | 0.00 | 0.00 | 0.00 | 75 | 1018.7 |
| 20260904193642 | 81 | 210 | 2.0 | 7.0 | 0.00 | 0.00 | 0.00 | 75 | 1018.7 |
| 20260904193145 | 82 | 149 | 4.0 | 5.0 | 0.00 | 0.00 | 0.00 | 74 | 1018.7 |
| 20260904192648 | 82 | 158 | 2.0 | 4.0 | 0.00 | 0.00 | 0.00 | 74 | 1018.6 |
| 20260904192142 | 82 | 168 | 0.0 | 3.0 | 0.00 | 0.00 | 0.00 | 74 | 1018.5 |
| 20260904191642 | 82 | 109 | 4.0 | 4.0 | 0.00 | 0.00 | 0.00 | 73 | 1018.5 |
| 20260904191148 | 82 | 153 | 1.0 | 2.0 | 0.00 | 0.00 | 0.00 | 74 | 1018.5 |
| 20260904190643 | 82 | 153 | 0.0 | 3.0 | 0.00 | 0.00 | 0.00 | 74 | 1018.4 |
| 20260904190142 | 83 | 127 | 2.0 | 3.0 | 0.00 | 0.00 | 0.00 | 74 | 1018.4 |
| 20260904185642 | 83 | 142 | 0.0 | 4.0 | 0.00 | 0.00 | 0.00 | 74 | 1018.3 |
| 20260904185148 | 83 | 135 | 3.0 | 4.0 | 0.00 | 0.00 | 0.00 | 74 | 1018.3 |
| 20260904184645 | 83 | 126 | 0.0 | 3.0 | 0.00 | 0.00 | 0.00 | 74 | 1018.2 |
| 20260904184142 | 83 | 188 | 2.0 | 4.0 | 0.00 | 0.00 | 0.00 | 73 | 1018.1 |
| 20260904183646 | 83 | 137 | 0.0 | 4.0 | 0.00 | 0.00 | 0.00 | 73 | 1018.1 |
| 20260904183145 | 84 | 176 | 3.0 | 3.0 | 0.00 | 0.00 | 0.00 | 74 | 1018.0 |
| 20260904182642 | 83 | 92 | 0.0 | 0.0 | 0.00 | 0.00 | 0.00 | 74 | 1017.9 |
| 20260904182145 | 83 | 92 | 0.0 | 3.0 | 0.00 | 0.00 | 0.00 | 74 | 1017.8 |
| 20260904181645 | 83 | 92 | 3.0 | 3.0 | 0.00 | 0.00 | 0.00 | 74 | 1017.7 |
| 20260904181142 | 83 | 109 | 2.0 | 5.0 | 0.00 | 0.00 | 0.00 | 74 | 1017.7 |
| 20260904180651 | 83 | 323 | 3.0 | 4.0 | 0.00 | 0.00 | 0.00 | 74 | 1017.6 |
| 20260904180145 | 84 | 9 | 2.0 | 4.0 | 0.00 | 0.00 | 0.00 | 74 | 1017.6 |
| 20260904175642 | 84 | 32 | 3.0 | 5.0 | 0.00 | 0.00 | 0.00 | 74 | 1017.5 |
| 20260904175142 | 84 | 355 | 3.0 | 5.0 | 0.00 | 0.00 | 0.00 | 74 | 1017.4 |
| 20260904174642 | 84 | 45 | 3.0 | 5.0 | 0.00 | 0.00 | 0.00 | 73 | 1017.3 |
| 20260904174142 | 84 | 27 | 3.0 | 5.0 | 0.00 | 0.00 | 0.00 | 73 | 1017.3 |
| 20260904173642 | 84 | 42 | 3.0 | 5.0 | 0.00 | 0.00 | 0.00 | 72 | 1017.3 |
| 20260904173142 | 85 | 0 | 4.0 | 5.0 | 0.00 | 0.00 | 0.00 | 71 | 1017.3 |
| 20260904172642 | 85 | 334 | 1.0 | 3.0 | 0.00 | 0.00 | 0.00 | 71 | 1017.3 |
| 20260904172145 | 85 | 13 | 0.0 | 4.0 | 0.00 | 0.00 | 0.00 | 71 | 1017.2 |
| 20260904171642 | 85 | 349 | 3.0 | 5.0 | 0.00 | 0.00 | 0.00 | 70 | 1017.2 |
| 20260904171142 | 86 | 328 | 1.0 | 4.0 | 0.00 | 0.00 | 0.00 | 69 | 1017.2 |
| 20260904170642 | 86 | 263 | 3.0 | 5.0 | 0.00 | 0.00 | 0.00 | 69 | 1017.2 |
| 20260904170142 | 86 | 330 | 2.0 | 4.0 | 0.00 | 0.00 | 0.00 | 68 | 1017.2 |
| 20260904165642 | 87 | 252 | 0.0 | 6.0 | 0.00 | 0.00 | 0.00 | 68 | 1017.2 |
| 20260904165142 | 87 | 296 | 5.0 | 5.0 | 0.00 | 0.00 | 0.00 | 67 | 1017.1 |
| 20260904164648 | 87 | 231 | 1.0 | 5.0 | 0.00 | 0.00 | 0.00 | 67 | 1017.1 |
| 20260904164148 | 87 | 306 | 2.0 | 4.0 | 0.00 | 0.00 | 0.00 | 66 | 1017.1 |
| 20260904163645 | 87 | 302 | 4.0 | 5.0 | 0.00 | 0.00 | 0.00 | 65 | 1017.0 |
| 20260904163142 | 87 | 285 | 2.0 | 5.0 | 0.00 | 0.00 | 0.00 | 65 | 1017.0 |
| 20260904162645 | 87 | 315 | 3.0 | 7.0 | 0.00 | 0.00 | 0.00 | 66 | 1017.0 |
| 20260904162142 | 87 | 284 | 5.0 | 7.0 | 0.00 | 0.00 | 0.00 | 66 | 1017.1 |
| 20260904161642 | 87 | 235 | 3.0 | 5.0 | 0.00 | 0.00 | 0.00 | 66 | 1017.1 |
| 20260904161142 | 88 | 242 | 4.0 | 7.0 | 0.00 | 0.00 | 0.00 | 66 | 1017.0 |
| 20260904160645 | 88 | 319 | 4.0 | 5.0 | 0.00 | 0.00 | 0.00 | 66 | 1017.1 |
| 20260904160148 | 88 | 299 | 0.0 | 5.0 | 0.00 | 0.00 | 0.00 | 66 | 1017.1 |
| 20260904155645 | 87 | 314 | 3.0 | 4.0 | 0.00 | 0.00 | 0.00 | 64 | 1017.1 |
| 20260904155142 | 88 | 229 | 3.0 | 7.0 | 0.00 | 0.00 | 0.00 | 65 | 1017.0 |
| 20260904154642 | 88 | 297 | 5.0 | 7.0 | 0.00 | 0.00 | 0.00 | 65 | 1017.0 |
| 20260904154148 | 88 | 285 | 5.0 | 6.0 | 0.00 | 0.00 | 0.00 | 66 | 1016.9 |
| 20260904153645 | 88 | 304 | 2.0 | 6.0 | 0.00 | 0.00 | 0.00 | 66 | 1017.0 |
| 20260904153145 | 88 | 290 | 0.0 | 6.0 | 0.00 | 0.00 | 0.00 | 64 | 1017.0 |
| 20260904152642 | 88 | 327 | 1.0 | 9.0 | 0.00 | 0.00 | 0.00 | 64 | 1017.1 |
| 20260904152145 | 88 | 281 | 6.0 | 9.0 | 0.00 | 0.00 | 0.00 | 64 | 1017.0 |
| 20260904151645 | 88 | 331 | 5.0 | 7.0 | 0.00 | 0.00 | 0.00 | 64 | 1017.0 |
| 20260904151142 | 88 | 266 | 5.0 | 9.0 | 0.00 | 0.00 | 0.00 | 63 | 1017.0 |
| 20260904150646 | 88 | 332 | 5.0 | 8.0 | 0.00 | 0.00 | 0.00 | 63 | 1017.0 |
| 20260904150148 | 88 | 335 | 0.0 | 9.0 | 0.00 | 0.00 | 0.00 | 63 | 1016.9 |
| 20260904145642 | 88 | 32 | 3.0 | 7.0 | 0.00 | 0.00 | 0.00 | 63 | 1016.9 |
| 20260904145142 | 89 | 338 | 4.0 | 7.0 | 0.00 | 0.00 | 0.00 | 63 | 1016.8 |
| 20260904144642 | 89 | 273 | 4.0 | 8.0 | 0.00 | 0.00 | 0.00 | 62 | 1016.8 |
| 20260904144142 | 89 | 282 | 7.0 | 9.0 | 0.00 | 0.00 | 0.00 | 63 | 1016.9 |
| 20260904143645 | 89 | 289 | 4.0 | 11.0 | 0.00 | 0.00 | 0.00 | 62 | 1016.9 |
| 20260904143145 | 89 | 319 | 2.0 | 7.0 | 0.00 | 0.00 | 0.00 | 61 | 1016.9 |
| 20260904142645 | 89 | 242 | 3.0 | 8.0 | 0.00 | 0.00 | 0.00 | 63 | 1016.9 |
| 20260904142148 | 89 | 273 | 4.0 | 9.0 | 0.00 | 0.00 | 0.00 | 63 | 1016.9 |
| 20260904141645 | 89 | 246 | 2.0 | 10.0 | 0.00 | 0.00 | 0.00 | 62 | 1016.9 |
| 20260904141142 | 89 | 297 | 8.0 | 9.0 | 0.00 | 0.00 | 0.00 | 63 | 1016.8 |
| 20260904140645 | 88 | 296 | 6.0 | 10.0 | 0.00 | 0.00 | 0.00 | 62 | 1016.8 |
| 20260904140142 | 88 | 276 | 8.0 | 11.0 | 0.00 | 0.00 | 0.00 | 63 | 1016.8 |
| 20260904135642 | 88 | 262 | 6.0 | 10.0 | 0.00 | 0.00 | 0.00 | 64 | 1016.9 |
| 20260904135148 | 89 | 283 | 8.0 | 10.0 | 0.00 | 0.00 | 0.00 | 64 | 1016.8 |
| 20260904134642 | 89 | 294 | 4.0 | 9.0 | 0.00 | 0.00 | 0.00 | 63 | 1016.9 |
| 20260904134142 | 88 | 315 | 3.0 | 9.0 | 0.00 | 0.00 | 0.00 | 62 | 1017.0 |
| 20260904133642 | 88 | 295 | 1.0 | 8.0 | 0.00 | 0.00 | 0.00 | 62 | 1017.0 |
| 20260904133142 | 88 | 313 | 6.0 | 9.0 | 0.00 | 0.00 | 0.00 | 63 | 1017.0 |
| 20260904132645 | 88 | 302 | 8.0 | 10.0 | 0.00 | 0.00 | 0.00 | 63 | 1017.1 |
| 20260904132142 | 88 | 12 | 6.0 | 9.0 | 0.00 | 0.00 | 0.00 | 63 | 1017.1 |
| 20260904131643 | 88 | 292 | 0.0 | 10.0 | 0.00 | 0.00 | 0.00 | 62 | 1017.1 |
| 20260904131142 | 88 | 309 | 1.0 | 7.0 | 0.00 | 0.00 | 0.00 | 63 | 1017.1 |
| 20260904130642 | 88 | 5 | 4.0 | 10.0 | 0.00 | 0.00 | 0.00 | 64 | 1017.1 |
| 20260904130142 | 88 | 292 | 5.0 | 9.0 | 0.00 | 0.00 | 0.00 | 62 | 1017.1 |
| 20260904125642 | 89 | 295 | 8.0 | 10.0 | 0.00 | 0.00 | 0.00 | 64 | 1017.1 |
| 20260904125145 | 88 | 213 | 3.0 | 9.0 | 0.00 | 0.00 | 0.00 | 65 | 1017.1 |
| 20260904124645 | 88 | 304 | 6.0 | 9.0 | 0.00 | 0.00 | 0.00 | 65 | 1017.2 |
| 20260904124142 | 88 | 294 | 6.0 | 10.0 | 0.00 | 0.00 | 0.00 | 66 | 1017.2 |
| 20260904123648 | 88 | 249 | 6.0 | 12.0 | 0.00 | 0.00 | 0.00 | 65 | 1017.2 |
| 20260904123142 | 88 | 300 | 8.0 | 11.0 | 0.00 | 0.00 | 0.00 | 65 | 1017.3 |
| 20260904122645 | 88 | 263 | 4.0 | 11.0 | 0.00 | 0.00 | 0.00 | 66 | 1017.3 |
| 20260904122148 | 88 | 279 | 9.0 | 10.0 | 0.00 | 0.00 | 0.00 | 66 | 1017.4 |
| 20260904121648 | 88 | 323 | 5.0 | 11.0 | 0.00 | 0.00 | 0.00 | 65 | 1017.4 |
| 20260904121142 | 88 | 309 | 4.0 | 12.0 | 0.00 | 0.00 | 0.00 | 66 | 1017.3 |
| 20260904120645 | 88 | 304 | 8.0 | 10.0 | 0.00 | 0.00 | 0.00 | 66 | 1017.4 |
| 20260904120145 | 88 | 308 | 5.0 | 13.0 | 0.00 | 0.00 | 0.00 | 65 | 1017.5 |
| 20260904115645 | 88 | 302 | 7.0 | 11.0 | 0.00 | 0.00 | 0.00 | 65 | 1017.4 |
| 20260904115142 | 88 | 306 | 7.0 | 12.0 | 0.00 | 0.00 | 0.00 | 64 | 1017.4 |
| 20260904114645 | 88 | 244 | 5.0 | 10.0 | 0.00 | 0.00 | 0.00 | 65 | 1017.5 |
| 20260904114148 | 88 | 267 | 5.0 | 11.0 | 0.00 | 0.00 | 0.00 | 63 | 1017.4 |
| 20260904113642 | 88 | 349 | 8.0 | 11.0 | 0.00 | 0.00 | 0.00 | 65 | 1017.4 |
| 20260904113142 | 88 | 344 | 3.0 | 11.0 | 0.00 | 0.00 | 0.00 | 65 | 1017.4 |
| 20260904112645 | 88 | 348 | 6.0 | 9.0 | 0.00 | 0.00 | 0.00 | 65 | 1017.4 |
| 20260904112142 | 88 | 347 | 3.0 | 9.0 | 0.00 | 0.00 | 0.00 | 65 | 1017.4 |
| 20260904111642 | 88 | 284 | 3.0 | 11.0 | 0.00 | 0.00 | 0.00 | 65 | 1017.4 |
| 20260904111148 | 87 | 300 | 6.0 | 10.0 | 0.00 | 0.00 | 0.00 | 67 | 1017.5 |
| 20260904110645 | 87 | 49 | 3.0 | 9.0 | 0.00 | 0.00 | 0.00 | 65 | 1017.5 |
| 20260904110145 | 87 | 328 | 7.0 | 10.0 | 0.00 | 0.00 | 0.00 | 66 | 1017.5 |
| 20260904105642 | 87 | 275 | 4.0 | 10.0 | 0.00 | 0.00 | 0.00 | 66 | 1017.5 |
| 20260904105142 | 87 | 287 | 7.0 | 12.0 | 0.00 | 0.00 | 0.00 | 66 | 1017.5 |
| 20260904104642 | 87 | 247 | 3.0 | 10.0 | 0.00 | 0.00 | 0.00 | 67 | 1017.5 |
| 20260904104142 | 87 | 300 | 7.0 | 12.0 | 0.00 | 0.00 | 0.00 | 66 | 1017.5 |
| 20260904103649 | 87 | 28 | 1.0 | 9.0 | 0.00 | 0.00 | 0.00 | 66 | 1017.4 |
| 20260904103142 | 87 | 274 | 7.0 | 12.0 | 0.00 | 0.00 | 0.00 | 66 | 1017.6 |
| 20260904102645 | 87 | 38 | 5.0 | 15.0 | 0.00 | 0.00 | 0.00 | 67 | 1017.5 |
| 20260904102145 | 87 | 294 | 15.0 | 15.0 | 0.00 | 0.00 | 0.00 | 66 | 1017.6 |
| 20260904101642 | 87 | 324 | 3.0 | 10.0 | 0.00 | 0.00 | 0.00 | 67 | 1017.6 |
| 20260904101148 | 87 | 279 | 7.0 | 9.0 | 0.00 | 0.00 | 0.00 | 67 | 1017.6 |
| 20260904100645 | 86 | 292 | 3.0 | 11.0 | 0.00 | 0.00 | 0.00 | 67 | 1017.6 |
| 20260904100148 | 86 | 267 | 6.0 | 12.0 | 0.00 | 0.00 | 0.00 | 68 | 1017.6 |
| 20260904095642 | 86 | 327 | 9.0 | 11.0 | 0.00 | 0.00 | 0.00 | 68 | 1017.6 |
| 20260904095145 | 86 | 284 | 7.0 | 11.0 | 0.00 | 0.00 | 0.00 | 68 | 1017.7 |
| 20260904094642 | 86 | 301 | 6.0 | 9.0 | 0.00 | 0.00 | 0.00 | 68 | 1017.7 |
| 20260904094145 | 86 | 13 | 3.0 | 11.0 | 0.00 | 0.00 | 0.00 | 68 | 1017.7 |
| 20260904093645 | 86 | 286 | 2.0 | 12.0 | 0.00 | 0.00 | 0.00 | 68 | 1017.7 |
| 20260904093142 | 85 | 292 | 0.0 | 5.0 | 0.00 | 0.00 | 0.00 | 69 | 1017.5 |
| 20260904092642 | 85 | 324 | 5.0 | 9.0 | 0.00 | 0.00 | 0.00 | 70 | 1017.6 |
| 20260904092142 | 85 | 288 | 9.0 | 11.0 | 0.00 | 0.00 | 0.00 | 69 | 1017.6 |
| 20260904091645 | 85 | 233 | 3.0 | 11.0 | 0.00 | 0.00 | 0.00 | 68 | 1017.6 |
| 20260904091145 | 86 | 320 | 5.0 | 8.0 | 0.00 | 0.00 | 0.00 | 68 | 1017.6 |
| 20260904090642 | 86 | 290 | 5.0 | 8.0 | 0.00 | 0.00 | 0.00 | 68 | 1017.7 |
| 20260904090142 | 85 | 261 | 5.0 | 10.0 | 0.00 | 0.00 | 0.00 | 68 | 1017.6 |
| 20260904085645 | 85 | 282 | 10.0 | 11.0 | 0.00 | 0.00 | 0.00 | 68 | 1017.6 |
| 20260904085145 | 85 | 291 | 7.0 | 11.0 | 0.00 | 0.00 | 0.00 | 67 | 1017.7 |
| 20260904084643 | 85 | 317 | 4.0 | 10.0 | 0.00 | 0.00 | 0.00 | 67 | 1017.6 |
| 20260904084145 | 85 | 325 | 4.0 | 5.0 | 0.00 | 0.00 | 0.00 | 68 | 1017.6 |
| 20260904083642 | 85 | 317 | 4.0 | 8.0 | 0.00 | 0.00 | 0.00 | 68 | 1017.5 |
| 20260904083148 | 85 | 292 | 5.0 | 10.0 | 0.00 | 0.00 | 0.00 | 67 | 1017.5 |
| 20260904082642 | 86 | 309 | 3.0 | 7.0 | 0.00 | 0.00 | 0.00 | 67 | 1017.5 |
| 20260904082143 | 85 | 284 | 0.0 | 4.0 | 0.00 | 0.00 | 0.00 | 67 | 1017.4 |
| 20260904081645 | 85 | 261 | 0.0 | 9.0 | 0.00 | 0.00 | 0.00 | 67 | 1017.4 |
| 20260904081142 | 86 | 317 | 1.0 | 5.0 | 0.00 | 0.00 | 0.00 | 66 | 1017.4 |
| 20260904080642 | 85 | 294 | 2.0 | 6.0 | 0.00 | 0.00 | 0.00 | 66 | 1017.3 |
| 20260904080145 | 85 | 316 | 3.0 | 8.0 | 0.00 | 0.00 | 0.00 | 66 | 1017.2 |
| 20260904075643 | 85 | 308 | 0.0 | 8.0 | 0.00 | 0.00 | 0.00 | 67 | 1017.2 |
| 20260904075142 | 84 | 205 | 0.0 | 5.0 | 0.00 | 0.00 | 0.00 | 68 | 1017.1 |
| 20260904074649 | 84 | 223 | 5.0 | 7.0 | 0.00 | 0.00 | 0.00 | 68 | 1017.0 |
| 20260904074143 | 84 | 225 | 5.0 | 6.0 | 0.00 | 0.00 | 0.00 | 68 | 1017.0 |
| 20260904073645 | 84 | 247 | 6.0 | 7.0 | 0.00 | 0.00 | 0.00 | 68 | 1016.9 |
| 20260904073142 | 84 | 248 | 5.0 | 7.0 | 0.00 | 0.00 | 0.00 | 68 | 1016.9 |
| 20260904072645 | 83 | 267 | 1.0 | 5.0 | 0.00 | 0.00 | 0.00 | 69 | 1016.9 |
| 20260904072142 | 83 | 207 | 0.0 | 4.0 | 0.00 | 0.00 | 0.00 | 69 | 1016.8 |
| 20260904071645 | 83 | 169 | 2.0 | 4.0 | 0.00 | 0.00 | 0.00 | 69 | 1016.8 |
| 20260904071146 | 83 | 175 | 3.0 | 5.0 | 0.00 | 0.00 | 0.00 | 68 | 1016.8 |
| 20260904070649 | 83 | 180 | 3.0 | 5.0 | 0.00 | 0.00 | 0.00 | 68 | 1016.7 |
| 20260904070143 | 83 | 205 | 3.0 | 5.0 | 0.00 | 0.00 | 0.00 | 68 | 1016.7 |
| 20260904065643 | 83 | 207 | 3.0 | 5.0 | 0.00 | 0.00 | 0.00 | 68 | 1016.8 |
| 20260904065149 | 83 | 254 | 0.0 | 4.0 | 0.00 | 0.00 | 0.00 | 68 | 1016.9 |
| 20260904064646 | 83 | 175 | 0.0 | 4.0 | 0.00 | 0.00 | 0.00 | 68 | 1017.0 |
| 20260904064146 | 83 | 178 | 3.0 | 5.0 | 0.00 | 0.00 | 0.00 | 68 | 1016.9 |
| 20260904063646 | 82 | 180 | 2.0 | 3.0 | 0.00 | 0.00 | 0.00 | 69 | 1016.9 |
| 20260904063145 | 82 | 164 | 1.0 | 6.0 | 0.00 | 0.00 | 0.00 | 70 | 1016.7 |
| 20260904062646 | 82 | 130 | 2.0 | 7.0 | 0.00 | 0.00 | 0.00 | 70 | 1016.8 |
| 20260904062146 | 81 | 179 | 4.0 | 5.0 | 0.00 | 0.00 | 0.00 | 70 | 1016.7 |
| 20260904061643 | 81 | 223 | 5.0 | 6.0 | 0.00 | 0.00 | 0.00 | 71 | 1016.7 |
| 20260904061143 | 81 | 195 | 3.0 | 5.0 | 0.00 | 0.00 | 0.00 | 72 | 1016.8 |
| 20260904060643 | 81 | 176 | 5.0 | 6.0 | 0.00 | 0.00 | 0.00 | 73 | 1016.7 |
| 20260904060143 | 81 | 208 | 2.0 | 2.0 | 0.00 | 0.00 | 0.00 | 75 | 1016.7 |
| 20260904055643 | 80 | 169 | 2.0 | 4.0 | 0.00 | 0.00 | 0.00 | 75 | 1016.8 |
| 20260904055143 | 80 | 124 | 3.0 | 5.0 | 0.00 | 0.00 | 0.00 | 76 | 1016.9 |
| 20260904054643 | 79 | 167 | 1.0 | 5.0 | 0.00 | 0.00 | 0.00 | 77 | 1016.8 |
| 20260904054143 | 79 | 117 | 2.0 | 5.0 | 0.00 | 0.00 | 0.00 | 78 | 1016.7 |
| 20260904053643 | 79 | 131 | 2.0 | 5.0 | 0.00 | 0.00 | 0.00 | 79 | 1016.8 |
| 20260904053143 | 78 | 157 | 1.0 | 3.0 | 0.00 | 0.00 | 0.00 | 79 | 1016.8 |
| 20260904052643 | 78 | 126 | 0.0 | 3.0 | 0.00 | 0.00 | 0.00 | 79 | 1016.9 |
| 20260904052143 | 78 | 178 | 1.0 | 3.0 | 0.00 | 0.00 | 0.00 | 80 | 1016.8 |
| 20260904051646 | 78 | 178 | 1.0 | 2.0 | 0.00 | 0.00 | 0.00 | 80 | 1016.7 |
| 20260904051143 | 78 | 178 | 1.0 | 3.0 | 0.00 | 0.00 | 0.00 | 80 | 1016.7 |
| 20260904050643 | 78 | 180 | 2.0 | 6.0 | 0.00 | 0.00 | 0.00 | 80 | 1016.6 |
| 20260904050143 | 78 | 160 | 6.0 | 5.0 | 0.00 | 0.00 | 0.00 | 80 | 1016.5 |
| 20260904045646 | 78 | 181 | 2.0 | 3.0 | 0.00 | 0.00 | 0.00 | 80 | 1016.4 |
| 20260904045149 | 78 | 159 | 3.0 | 4.0 | 0.00 | 0.00 | 0.00 | 80 | 1016.4 |
| 20260904044643 | 78 | 130 | 1.0 | 3.0 | 0.00 | 0.00 | 0.00 | 80 | 1016.4 |
| 20260904044146 | 78 | 173 | 2.0 | 3.0 | 0.00 | 0.00 | 0.00 | 81 | 1016.3 |
| 20260904043643 | 78 | 159 | 0.0 | 4.0 | 0.00 | 0.00 | 0.00 | 81 | 1016.3 |
| 20260904043143 | 77 | 175 | 0.0 | 4.0 | 0.00 | 0.00 | 0.00 | 81 | 1016.2 |
| 20260904042649 | 78 | 169 | 3.0 | 5.0 | 0.00 | 0.00 | 0.00 | 81 | 1016.3 |
| 20260904042146 | 78 | 116 | 0.0 | 4.0 | 0.00 | 0.00 | 0.00 | 81 | 1016.3 |
| 20260904041646 | 78 | 163 | 1.0 | 6.0 | 0.00 | 0.00 | 0.00 | 81 | 1016.3 |
| 20260904041143 | 78 | 126 | 2.0 | 5.0 | 0.00 | 0.00 | 0.00 | 80 | 1016.3 |
| 20260904040646 | 78 | 112 | 5.0 | 6.0 | 0.00 | 0.00 | 0.00 | 80 | 1016.4 |
| 20260904040143 | 78 | 146 | 3.0 | 5.0 | 0.00 | 0.00 | 0.00 | 80 | 1016.3 |
| 20260904035643 | 78 | 149 | 4.0 | 6.0 | 0.00 | 0.00 | 0.00 | 80 | 1016.3 |
| 20260904035146 | 78 | 166 | 1.0 | 4.0 | 0.00 | 0.00 | 0.00 | 80 | 1016.3 |
| 20260904034649 | 78 | 150 | 0.0 | 6.0 | 0.00 | 0.00 | 0.00 | 80 | 1016.3 |
| 20260904034143 | 78 | 164 | 1.0 | 4.0 | 0.00 | 0.00 | 0.00 | 80 | 1016.2 |
| 20260904033643 | 78 | 169 | 2.0 | 5.0 | 0.00 | 0.00 | 0.00 | 80 | 1016.2 |
| 20260904033143 | 78 | 179 | 1.0 | 5.0 | 0.00 | 0.00 | 0.00 | 80 | 1016.1 |
| 20260904032643 | 78 | 134 | 0.0 | 3.0 | 0.00 | 0.00 | 0.00 | 80 | 1016.2 |
| 20260904032146 | 78 | 180 | 0.0 | 3.0 | 0.00 | 0.00 | 0.00 | 80 | 1016.2 |
| 20260904031646 | 78 | 188 | 2.0 | 4.0 | 0.00 | 0.00 | 0.00 | 80 | 1016.2 |
| 20260904031143 | 78 | 146 | 4.0 | 4.0 | 0.00 | 0.00 | 0.00 | 80 | 1016.2 |
| 20260904030646 | 78 | 151 | 1.0 | 6.0 | 0.00 | 0.00 | 0.00 | 80 | 1016.2 |
| 20260904030143 | 78 | 85 | 1.0 | 4.0 | 0.00 | 0.00 | 0.00 | 80 | 1016.2 |
| 20260904025649 | 78 | 137 | 0.0 | 4.0 | 0.00 | 0.00 | 0.00 | 80 | 1016.2 |
| 20260904025144 | 78 | 148 | 0.0 | 5.0 | 0.00 | 0.00 | 0.00 | 80 | 1016.2 |
| 20260904024643 | 78 | 164 | 3.0 | 5.0 | 0.00 | 0.00 | 0.00 | 80 | 1016.2 |
| 20260904024149 | 78 | 167 | 2.0 | 5.0 | 0.00 | 0.00 | 0.00 | 79 | 1016.2 |
| 20260904023643 | 78 | 173 | 2.0 | 5.0 | 0.00 | 0.00 | 0.00 | 79 | 1016.2 |
| 20260904023149 | 78 | 170 | 3.0 | 4.0 | 0.00 | 0.00 | 0.00 | 79 | 1016.2 |
| 20260904022643 | 78 | 181 | 3.0 | 4.0 | 0.00 | 0.00 | 0.00 | 79 | 1016.2 |
| 20260904022143 | 78 | 177 | 3.0 | 4.0 | 0.00 | 0.00 | 0.00 | 79 | 1016.2 |
| 20260904021643 | 78 | 171 | 0.0 | 5.0 | 0.00 | 0.00 | 0.00 | 79 | 1016.2 |
| 20260904021146 | 78 | 138 | 1.0 | 7.0 | 0.00 | 0.00 | 0.00 | 79 | 1016.3 |
| 20260904020646 | 78 | 144 | 3.0 | 5.0 | 0.00 | 0.00 | 0.00 | 79 | 1016.2 |
| 20260904020145 | 78 | 175 | 3.0 | 7.0 | 0.00 | 0.00 | 0.00 | 79 | 1016.2 |
| 20260904015645 | 78 | 124 | 3.0 | 5.0 | 0.00 | 0.00 | 0.00 | 79 | 1016.2 |
| 20260904015142 | 78 | 138 | 4.0 | 6.0 | 0.00 | 0.00 | 0.00 | 79 | 1016.2 |
| 20260904014645 | 78 | 123 | 1.0 | 7.0 | 0.00 | 0.00 | 0.00 | 79 | 1016.2 |
| 20260904014142 | 78 | 84 | 0.0 | 7.0 | 0.00 | 0.00 | 0.00 | 79 | 1016.2 |
| 20260904013645 | 78 | 207 | 1.0 | 6.0 | 0.00 | 0.00 | 0.00 | 79 | 1016.2 |
| 20260904013145 | 79 | 137 | 3.0 | 5.0 | 0.00 | 0.00 | 0.00 | 79 | 1016.2 |
| 20260904012651 | 79 | 251 | 1.0 | 5.0 | 0.00 | 0.00 | 0.00 | 80 | 1016.2 |
| 20260904012142 | 79 | 148 | 0.0 | 6.0 | 0.00 | 0.00 | 0.00 | 80 | 1016.2 |
| 20260904011642 | 79 | 174 | 2.0 | 4.0 | 0.00 | 0.00 | 0.00 | 79 | 1016.1 |
| 20260904011145 | 79 | 158 | 2.0 | 4.0 | 0.00 | 0.00 | 0.00 | 80 | 1016.1 |
| 20260904010648 | 79 | 160 | 1.0 | 4.0 | 0.00 | 0.00 | 0.00 | 79 | 1016.1 |
| 20260904010142 | 79 | 156 | 3.0 | 4.0 | 0.00 | 0.00 | 0.00 | 80 | 1016.0 |
| 20260904005645 | 79 | 165 | 1.0 | 5.0 | 0.00 | 0.00 | 0.00 | 80 | 1015.9 |
| 20260904005148 | 79 | 113 | 0.0 | 5.0 | 0.00 | 0.00 | 0.00 | 80 | 1015.8 |
| 20260904004645 | 79 | 161 | 2.0 | 5.0 | 0.00 | 0.00 | 0.00 | 80 | 1016.0 |
| 20260904004142 | 79 | 109 | 0.0 | 5.0 | 0.00 | 0.00 | 0.00 | 80 | 1016.0 |
| 20260904003642 | 79 | 156 | 2.0 | 6.0 | 0.00 | 0.00 | 0.00 | 80 | 1016.0 |
| 20260904003142 | 79 | 117 | 1.0 | 7.0 | 0.00 | 0.00 | 0.00 | 80 | 1016.0 |
| 20260904002642 | 79 | 163 | 0.0 | 6.0 | 0.00 | 0.00 | 0.00 | 79 | 1016.2 |
| 20260904002148 | 79 | 140 | 0.0 | 5.0 | 0.00 | 0.00 | 0.00 | 79 | 1016.1 |
| 20260904001648 | 79 | 186 | 0.0 | 7.0 | 0.00 | 0.00 | 0.00 | 79 | 1016.2 |
| 20260904001142 | 79 | 130 | 3.0 | 4.0 | 0.00 | 0.00 | 0.00 | 79 | 1016.2 |
| 20260904000645 | 80 | 96 | 0.0 | 3.0 | 0.00 | 0.00 | 0.00 | 78 | 1016.3 |
| 20260904000145 | 80 | 144 | 0.0 | 5.0 | 0.00 | 0.00 | 0.00 | 78 | 1016.3 |
| 20260903235642 | 80 | 142 | 3.0 | 3.0 | 0.00 | 0.00 | 0.00 | 78 | 1016.4 |
| 20260903235142 | 80 | 199 | 2.0 | 5.0 | 0.00 | 0.00 | 0.00 | 78 | 1016.4 |
| 20260903234642 | 80 | 115 | 0.0 | 0.0 | 0.00 | 0.00 | 0.00 | 77 | 1016.3 |
| 20260903234151 | 80 | 173 | 0.0 | 0.0 | 0.00 | 0.00 | 0.00 | 77 | 1016.4 |
| 20260903233642 | 80 | 146 | 0.0 | 0.0 | 0.00 | 0.00 | 0.00 | 77 | 1016.5 |
| 20260903233142 | 81 | 146 | 0.0 | 0.0 | 0.00 | 0.00 | 0.00 | 77 | 1016.5 |
| 20260903232646 | 81 | 146 | 0.0 | 0.0 | 0.00 | 0.00 | 0.00 | 77 | 1016.5 |
| 20260903232142 | 80 | 146 | 0.0 | 3.0 | 0.00 | 0.00 | 0.00 | 77 | 1016.5 |
| 20260903231642 | 80 | 169 | 1.0 | 4.0 | 0.00 | 0.00 | 0.00 | 77 | 1016.5 |
| 20260903231145 | 81 | 169 | 3.0 | 5.0 | 0.00 | 0.00 | 0.00 | 77 | 1016.5 |
| 20260903230645 | 81 | 173 | 3.0 | 5.0 | 0.00 | 0.00 | 0.00 | 76 | 1016.5 |
| 20260903230145 | 81 | 180 | 2.0 | 4.0 | 0.00 | 0.00 | 0.00 | 76 | 1016.6 |
| 20260903225645 | 81 | 196 | 1.0 | 4.0 | 0.00 | 0.00 | 0.00 | 76 | 1016.6 |
| 20260903225145 | 81 | 213 | 1.0 | 5.0 | 0.00 | 0.00 | 0.00 | 76 | 1016.5 |
| 20260903224643 | 81 | 236 | 3.0 | 5.0 | 0.00 | 0.00 | 0.00 | 76 | 1016.5 |
| 20260903224148 | 81 | 173 | 2.0 | 4.0 | 0.00 | 0.00 | 0.00 | 76 | 1016.5 |
| 20260903223642 | 82 | 158 | 2.0 | 4.0 | 0.00 | 0.00 | 0.00 | 75 | 1016.6 |
| 20260903223145 | 82 | 142 | 0.0 | 0.0 | 0.00 | 0.00 | 0.00 | 74 | 1016.5 |
| 20260903222645 | 82 | 246 | 0.0 | 0.0 | 0.00 | 0.00 | 0.00 | 74 | 1016.6 |
| 20260903222142 | 82 | 246 | 0.0 | 0.0 | 0.00 | 0.00 | 0.00 | 74 | 1016.5 |
| 20260903221645 | 82 | 246 | 0.0 | 3.0 | 0.00 | 0.00 | 0.00 | 74 | 1016.6 |
| 20260903221145 | 82 | 246 | 1.0 | 3.0 | 0.00 | 0.00 | 0.00 | 74 | 1016.5 |
| 20260903220648 | 83 | 246 | 0.0 | 3.0 | 0.00 | 0.00 | 0.00 | 74 | 1016.4 |
| 20260903220146 | 83 | 246 | 2.0 | 3.0 | 0.00 | 0.00 | 0.00 | 74 | 1016.4 |
| 20260903215645 | 83 | 246 | 0.0 | 0.0 | 0.00 | 0.00 | 0.00 | 73 | 1016.5 |
| 20260903215148 | 83 | 246 | 0.0 | 0.0 | 0.00 | 0.00 | 0.00 | 73 | 1016.6 |
| 20260903214642 | 83 | 309 | 0.0 | 4.0 | 0.00 | 0.00 | 0.00 | 73 | 1016.6 |
| 20260903214142 | 83 | 300 | 0.0 | 3.0 | 0.00 | 0.00 | 0.00 | 74 | 1016.6 |